Showing default

COSMOS 2585, 63288

Orbit data source: Space-Track

COSMOS 2585, 63288 is a payload satellite owned by VVKO VKS (CIS) in LEO that was launched on Sun, 16 Mar 2025 UTC via an ANGARA-1.2 launch vehicle from the Plesetsk Missile And Space Complex (PKMTR). Payload-class satellites include a variety of spacecraft equipped with specific instruments for various scientific and technological missions. These include communications satellites like Starlink; space stations such as the ISS; scientific satellites like the Hubble; Earth observation satellites from companies like Planet Labs, Umbra, and HawkEye 360; GPS; miniature CubeSats for education and research; and military/defense satellites.

Loading next visibility...
Identifier
63288, 2025-054A
Orbit
LEO
Last TLE update
8 hours ago
Origin
Manufacturer
Resehetnev ISS
Mission
Operational Defense Communications
Bus & Motor
STRELA-3M, Unknown motor
Mass
280 kg wet, 280 kg dry
Launch date (UTC)
2025-03-16 (2 months ago)
Launch vehicle
ANGARA-1.2
Launch site
Plesetsk Missile And Space Complex (PKMTR)
Object type
Payload
Rocket body
Debris
Shape & HBR
Cyl + 1 Ant, 7 m
Radar Cross Section
1.583 m², Large (>1 m²)

Expand to show TLE details & history

TLE from 8 hours ago
0 COSMOS 2585
1 63288U 25054A   25128.96825017  .00000049  00000-0  28226-3 0  9995
2 63288  82.4933 330.2309 0023800 194.4742 165.5659 12.42884278  6641
Epoch: 2025-05-08T23:14Z
Definitive object data (Epoch: 2025-05-08T23:14:16.814Z)
Latitude
Longitude
114.6297°
Altitude
1,515.251 km
Speed
7.099 km/s
True Right ascension
22h 00m 55s
True Declination
0° 00' 00"
Sunlit
Object was in daylight at TLE epoch
Visualization TLE readout
Latitude
23.48054°
Longitude
117.69157°
Altitude
1,515.526 km
Speed
7.101 km/s
Apparent Right ascension
00h 09m 55s
Apparent Declination
-5° 32' 00"
Sunlit
Object is in daylight
Visualization observer readout
Local Sidereal Time
15:14:30
Azimuth
62.821° ENE
Elevation
-36.213°
Doppler factor
1
Orbital elements
Apogee altitude
1,510.482 km
Perigee altitude
1,473.021 km
Semi-major axis
7,869.889 km
Eccentricity
0.00238
Inclination
82.4933°
RAAN
330.2309°
Arg. of periapsis
194.4742°
True anomaly
165.63369°
Mean anomaly
165.5659°
Eccentric anomaly
165.59981°
Mean motion
3.10878 °/min
BSTAR
0.00028226
Orbital period
115.8 mins
Loading maneuver chart data...
Loading SW <> Apogee altitude chart data...
Loading historical data...
Loading historical data...
Loading historical data...
Loading historical data...
Loading historical data...
Loading historical data...
Loading historical data...
Other satellites on launch #54 in the year 2025 (2025-03-16 UTC)

COSMOS 2585 Visibility forecast

Observer location: undefined°, undefined°

Span
Click to sort rows by Start time (UTC) header in descending order
Start Az.
Max El. time (UTC)
Max El. Az.
Max El.
End time (UTC)
End Az.
14 mins2025-05-09 12:51:34.215Z141.197° SSE2025-05-09 12:58:34.215Z85.514° E28.144°2025-05-09 13:05:34.215Z27.982° NE
16 mins2025-05-09 14:47:34.215Z209.394° SW2025-05-09 14:54:34.215Z272.069° WNW38.805°2025-05-09 15:03:34.215Z359.376° N
7 mins2025-05-09 23:04:34.215Z37.062° NE2025-05-09 23:07:34.215Z59.033° ENE13.985°2025-05-09 23:11:34.215Z87.759° E
16 mins2025-05-10 00:58:34.215Z356.45° N2025-05-10 01:06:34.215Z108.712° ESE43.793°2025-05-10 01:14:34.215Z166.683° S
10 mins2025-05-10 02:57:34.215Z315.65° NNW2025-05-10 03:01:34.215Z283.452° WNW20.219°2025-05-10 03:07:34.215Z237.122° WSW
|